星链-32247 (STARLINK-32247)

导读 | 豆包AI

STARLINK-32247是美国SpaceX公司于2024年8月12日发射的星链第二代低轨卫星,隶属于Starlink全球卫星互联网星座。星链星座旨在为全球缺乏传统网络基础设施的偏远地区提供高速低延迟宽带服务。该卫星采用第二代相控阵技术与数字处理,优化频谱利用效率,设计寿命约5年,助力SpaceX持续扩展星座覆盖与网络容量,推动全球互联覆盖能力提升。

Basic Information
目录编号:
60446
目录名称:
STARLINK-32247
国际标识:
2024-144X
轨道中心:
EARTH
卫星名称:
星链-32247 (STARLINK-32247)
卫星全名:
星链-32247 (STARLINK-32247)
卫星状态:
在轨 (已飞行627 天)
发射日期:
2024-08-12 UTC
国别 :
美国 (US)
星等 :
--
Orbit Information
数据来源 国际轨道数据 AOE轨道数据
星历时间 2026-05-01T04:58:31+0800
8小时前
查看轨道信息
2026-04-29T17:00:00+0800
1天前
查看轨道信息
半长轴 6853.377km 6853.364km
偏心率 0.0001027 0.0001232
轨道倾角 53.161° 53.161°
近地点辐角 98.540° 88.821°
升交点赤经 324.313° 331.276°
平近点角 261.571° 289.323°
近地点 474.536km 474.382km
远地点 475.944km 476.072km
周期 94.106分钟 94.106分钟
每日圈数 15.301917 15.301961
Detailed Information
卫星平台:
Starlink v2.0 mini
运营商:
太空探索技术公司
运营商所在国:
美国
制造商(研发单位):
太空探索技术公司
制造商所在国:
美国
使用方式:
暂无
Satellite Introduction
星链(Starlink)计划是由太空探索技术公司(SpaceX)提出的一个巨型低轨卫星互联网星座项目,计划在2019年至2024年间在太空搭建由约1.2万颗卫星组成的“星链”网络,其中1584颗将部署在地球上空550千米处的近地轨道,并从2020年开始工作。该卫星仍在工作。
2D Orbit Map
3D Orbit Map
Orbit Altitude Analysis Chart
Orbit Inclination Analysis Chart
Orbit Comprehensive Analysis Chart
View Comprehensive Chart